Preview of NWS' New Version of Forecast
This preview is not operational and should not be used for support decisions.

Regional Weather Roundup (RWR)

Issued by National Weather Service (NWS)

                            
623 
ASUS43 KMPX 200510
RWRMN 
WEATHER ROUNDUP FOR MINNESOTA
NATIONAL WEATHER SERVICE TWIN CITIES/CHANHASSEN MN
1200 AM CDT WED JUN 20 2018


NOTE: "FAIR" INDICATES FEW OR NO CLOUDS BELOW 12,000 FEET WITH NO
SIGNIFICANT WEATHER AND/OR OBSTRUCTIONS TO VISIBILITY. N/A MEANS
CURRENT SKY AND/OR WEATHER CONDITIONS ARE NOT AVAILABLE.

MNZ060>063-068>070-200600-
   Twin Cities Metro   
  
CITY           SKY/WX    TMP DP  RH WIND       PRES   REMARKS
TWIN CITIES    CLOUDY    66  60  81 NE3       29.96S                  
ST PAUL        CLOUDY    66  57  72 NE5       29.96R                  
CRYSTAL        CLOUDY    67  52  58 NE5       29.95R                  
BLAINE         CLOUDY    64  57  77 CALM      29.97R                  
LAKEVILLE      DRIZZLE   64  64 100 CALM      29.96S                  
EDEN PRAIRIE   CLOUDY    64  59  83 N3        29.96R                  
SOUTH ST PAUL  CLOUDY    65  63  91 CALM      29.96R                  
LAKE ELMO      CLOUDY    64  55  72 NE3       29.98R                  
$$
MNZ001>005-007-008-013>017-022>024-027-028-200600-
   Northwest Minnesota   
  
CITY           SKY/WX    TMP DP  RH WIND       PRES   REMARKS
BEMIDJI        FAIR      61  57  85 NW3       30.01F                  
HALLOCK        FAIR      66  57  72 CALM      30.01R                  
ROSEAU         FAIR      63  57  82 SW3       30.01R                  
WARROAD        FAIR      66  54  63 SW6       30.01R                  
THIEF RVR FALL FAIR      65  58  78 N3        30.03S                  
CROOKSTON      FAIR      68  54  60 N5        30.01F                  
DETROIT LAKES  FAIR      63  57  82 CALM      30.04R                  
MOORHEAD       FAIR      64  57  77 CALM      30.00F                  
PARK RAPIDS    MOCLDY    61  58  90 NW3       30.01S                  
MAHNOMEN       FAIR      64  59  84 CALM      30.02S                  
$$
MNZ006-009>011-018-025>026-200600-
   North Central Minnesota   
  
CITY           SKY/WX    TMP DP  RH WIND       PRES   REMARKS
BAUDETTE       FAIR      58  53  84 CALM      30.01R                  
FLAG ISLAND    FAIR      70  54  56 CALM      29.98S                  
INTL FALLS     FAIR      53  53 100 CALM      30.00R                  
WASKISH        FAIR      57  55  94 CALM      30.01R                  
BIG FORK       FAIR      61  59  94 CALM      30.01R                  
LONGVILLE      MOCLDY    61  59  94 CALM      30.01R                  
GRAND RAPIDS   FAIR      64  58  80 CALM      30.03R                  
CRANE LAKE     FAIR      54  54 100 CALM      29.99S                  
ORR            FAIR      57  54  88 SE3       29.98R                  
COOK           FAIR      61  55  82 CALM      30.01R                  
WALKER         FAIR      61  60  96 CALM      30.00F                  
$$
MNZ012-019>021-037-200600-
   Northeast Minnesota   
  
CITY           SKY/WX    TMP DP  RH WIND       PRES   REMARKS
DULUTH         FAIR      58  51  78 CALM      30.00R                  
ELY            FAIR      55  50  82 CALM      30.00R                  
HIBBING        FAIR      57  54  89 CALM      30.01R                  
EVELETH        FAIR      58  56  91 CALM      30.02R                  
DULUTH HARBOR  FAIR      55  52  88 CALM      30.00R                  
TWO HARBORS    FAIR      54  48  82 CALM      29.98R                  
SILVER BAY     FAIR      54  54 100 CALM      29.98R                  
GRAND MARAIS     N/A     47  44  90 CALM      29.97F                  
G MARAIS ARPRT FAIR      52  46  82 CALM      30.00F                  
$$
MNZ029>031-032-039>041-046>048-054>057-064-200600-
   West Central Minnesota   
  
CITY           SKY/WX    TMP DP  RH WIND       PRES   REMARKS
FERGUS FALLS   FAIR      63  57  82 CALM      30.02S                  
WHEATON        CLOUDY    59  55  88 CALM      30.02S                  
MORRIS         CLOUDY    63  59  88 E6        29.99S                  
ALEXANDRIA     CLOUDY    67  56  67 NE5       30.03S                  
ELBOW LAKE     FAIR      64  58  81 NE3       30.01S                  
WADENA         FAIR      61  59  94 CALM      30.02S                  
GLENWOOD       CLOUDY    63  55  77 NE6       30.02R                  
APPLETON       CLOUDY    64  61  88 N5        29.99R                  
BENSON         CLOUDY    66  57  72 NE3       30.02R                  
ORTONVILLE     CLOUDY    63  59  88 CALM      30.01R                  
MADISON        CLOUDY    66  66 100 CALM      30.00R                  
WILLMAR        CLOUDY    64  61  88 N5        30.02R                  
$$
MNZ033>034-036-042>043-049>051-058-059-200600-
   Central Minnesota     
  
CITY           SKY/WX    TMP DP  RH WIND       PRES   REMARKS
ST CLOUD       CLOUDY    66  60  81 CALM      29.98R                  
SAUK CENTRE    CLOUDY    64  53  69 N5        30.01R                  
PAYNESVILLE    CLOUDY    63  59  85 CALM      30.00R                  
AITKIN         CLOUDY    61  55  82 CALM      30.00R                  
PINE RIVER     CLOUDY    61  57  88 CALM      30.03F                  
BRAINERD       CLOUDY    63  57  81 CALM      30.01R                  
STAPLES        CLOUDY    63  61  94 CALM      30.01F                  
LONG PRAIRIE   CLOUDY    63  50  63 CALM      30.01F                  
LITTLE FALLS   CLOUDY    61  54  77 CALM      30.00S                  
LITCHFIELD     MOCLDY    66  57  72 E3        29.99S                  
BUFFALO        CLOUDY    65  52  61 CALM      29.99R                  
MAPLE LAKE     CLOUDY    66  56  68 E5        29.99R                  
HUTCHINSON     CLOUDY    64  56  75 N3        29.99R                  
$$
MNZ037-044-045-052-053-200600-
   East Central Minnesota   
  
CITY           SKY/WX    TMP DP  RH WIND       PRES   REMARKS
PRINCETON      CLOUDY    64  61  88 CALM      29.98R                  
MORA           MOCLDY    63  54  72 CALM      30.00S                  
CAMBRIDGE      CLOUDY    64  61  88 CALM      29.98R                  
RUSH CITY      RAIN      64  57  77 NE3       29.97R                  
MOOSE LAKE     MOCLDY    59  50  72 CALM      29.98S                  
HINCKLEY       CLOUDY    63  57  82 N5        29.98S                  
CLOQUET        FAIR      57  50  77 CALM      30.00S                  
MCGREGOR       MOCLDY    63  54  72 CALM      30.02R                  
$$
MNZ071>073-080-081-089-090-097-098-200600-
   Southwest Minnesota   
  
CITY           SKY/WX    TMP DP  RH WIND       PRES   REMARKS
MONTEVIDEO     CLOUDY    64  63  94 CALM      30.00R                  
GRANITE FALLS  CLOUDY    66  63  89 CALM      30.01R                  
CANBY          CLOUDY    67  65  94 W3        30.02R                  
MARSHALL       CLOUDY    63  61  93 N6        29.99R                  
REDWOOD FALLS  CLOUDY    63  59  87 NE3       29.97S                  
OLIVIA         CLOUDY    63  59  88 CALM      29.98S                  
PIPESTONE      CLOUDY    63  61  94 NE6       29.98S                  
WINDOM         CLOUDY    63  48  59 NE9       29.95S HAZE             
WORTHINGTON    LGT RAIN  62  62 100 NE12      29.97S FOG              
JACKSON        CLOUDY    63  63 100 NE9       29.95S FOG              
TRACY          CLOUDY    62  62 100 NE12      29.97F FOG              
$$
MNZ065>067-074>077-082>085-091>093-200600-
   South Central Minnesota  
  
CITY           SKY/WX    TMP DP  RH WIND       PRES   REMARKS
MANKATO        CLOUDY    64  62  93 NE9       29.95R                  
NEW ULM        CLOUDY    63  59  88 NE6       29.96R                  
ST JAMES       CLOUDY    63  63 100 N9        29.96R FOG              
FAIRMONT       CLOUDY    64  63  96 N8        29.94R                  
GLENCOE        CLOUDY    63  63  99 N5        29.97R                  
FARIBAULT      CLOUDY    63  63 100 NE6       29.95S FOG              
OWATONNA       CLOUDY    64  63  94 E8        29.94S                  
WASECA         CLOUDY    63  61  94 NE8       29.95S                  
ALBERT LEA     TSTM      63 N/A N/A NE10      29.93R                  
$$
MNZ078>079-086>088-094>096-200600-
   Southeast Minnesota   
  
CITY           SKY/WX    TMP DP  RH WIND       PRES   REMARKS
ROCHESTER      CLOUDY    63  62  97 E10       29.95R                  
RED WING       DRIZZLE   64  64 100 E6        29.95R                  
STANTON        DRIZZLE   64  62  94 E6        29.95R                  
DODGE CENTER   DRIZZLE   63  61  94 E7        29.95R                  
WINONA         CLOUDY    64  63  94 E6        29.94S                  
AUSTIN         CLOUDY    64  63  94 E10       29.93R                  
PRESTON        CLOUDY    62  61  94 E6        29.95S FOG              
$$
ABBREVIATIONS USED IN REMARKS
   TC - TEMPERATURES IN CELSIUS
  WCI - WIND CHILL INDEX
   HX - HEAT INDEX
  VSB - VISIBILITY 
$$